Voltar ao catálogo

STARLINK-36869

AtivoComunicaçõesVLEO
NORAD 67954·PAYLOAD·🇺🇸 United States

Lançado Feb 24, 2026 de Vandenberg Space Force Base

Loading…

Próximas Passagens (próximas 24 horas)

TLE

AtualizadoSource: CelesTrak SupGP

Época: Sep 15, 2026, 04:12 UTC

1 67954C 26037Y   26258.17548611 -.00027923  00000+0 -10116-2 0  2588
2 67954  42.9995 200.7244 0001194 271.7741 277.4321 15.27584555    18

Acompanhe STARLINK-36869 em tempo real com AllMySat

Download on the App Store